星链-35085 (STARLINK-35085)

导读

STARLINK-35085是美国太空探索技术公司星链星座的卫星,于2025年8月31日发射入轨,归属星链互联网星座组网序列。星链系统旨在为全球用户提供低延迟、高速率的卫星互联网接入服务,该卫星的发射进一步扩充了星链星座的在轨规模,推进了星座全球覆盖的组网进程。

Basic Information
目录编号:
65419
目录名称:
STARLINK-35085
国际标识:
2025-192R
轨道中心:
EARTH
卫星名称:
星链-35085
卫星全名:
星链-35085 (STARLINK-35085)
卫星状态:
在轨 (已飞行369 天)
发射日期:
2025-08-31 UTC
国别 :
美国 (US)
星等 :
--
Orbit Information
数据来源 国际轨道数据
星历时间: 2026-09-04T00:37:40+0800
16小时前
查看轨道信息
半长轴: 6848.853km
偏心率: 0.0001422
轨道倾角: 53.158°
近地点辐角 96.512°
升交点赤经 123.684°
平近点角 263.604°
近地点: 469.742km
远地点: 471.69km
周期: 94.013分钟
每日圈数: 15.317082
Detailed Information
固有亮度:
5
最大亮度:
2.5
卫星平台:
Starlink V1.0
覆盖范围:
全球
运营商:
太空探索技术公司
运营商所在国:
美国
制造商(研发单位):
太空探索技术公司
制造商所在国:
美国
使用方式:
暂无
Satellite Introduction
Starlink 计划是 SpaceX 推出的全球卫星互联网项目,通过发射低轨道卫星,为全球尤其是偏远地区提供高速、低延迟的互联网服务。自 2019 年起,Starlink 已部署数千颗卫星,旨在缩小全球数字鸿沟,推动互联网普及。该项目还为军事、航空等行业提供通信支持,带来广泛经济效益。
2D Orbit Map
3D Orbit Map
Orbit Altitude Analysis Chart
Orbit Inclination Analysis Chart
Orbit Comprehensive Analysis Chart
View Comprehensive Chart
Conjunction Data List
Event ID Objects TCA Miss Dist (km) Collision Risk Probability Collision Risk Index (CRI) Action
CDM_260902-232706-541906-553921
2026-09-02T
23:27:00+0000
2.743 km
极远距离
1.505175E-6 低风险 0.39
CDM_260827-182406-541906-553721
2026-08-27T
18:24:54+0000
2.788 km
极远距离
1.446739E-6 低风险 0.38
CDM_260901-070306-541906-839322
2026-09-01T
07:03:03+0000
2.710 km
极远距离
1.392073E-6 低风险 0.38